Time,TemperatureF,DewpointF,PressureIn,WindDirection,WindDirectionDegrees,WindSpeedMPH,WindSpeedGustMPH,Humidity,HourlyPrecipIn,Conditions,Clouds,dailyrainin,SoftwareType,DateUTC
2014-07-31 00:01:00,74.7,74.4,30.03,South,180,2.3,2.3,99,0.00,RA,,0.00,WeatherDisplay:10.37,2014-07-31 04:01:00,
2014-07-31 00:02:00,74.7,74.4,30.03,South,180,0.0,0.0,99,0.00,RA,,0.00,WeatherDisplay:10.37,2014-07-31 04:02:00,
2014-07-31 00:07:00,74.7,74.4,30.02,South,180,2.3,2.3,99,0.00,RA,,0.00,WeatherDisplay:10.37,2014-07-31 04:07:00,
2014-07-31 00:12:00,74.7,74.4,30.03,SW,225,3.5,3.5,99,0.00,CLR,,0.00,WeatherDisplay:10.37,2014-07-31 04:12:00,
2014-07-31 00:17:00,74.8,74.5,30.03,SE,135,2.3,2.3,99,0.00,CLR,,0.00,WeatherDisplay:10.37,2014-07-31 04:17:00,
2014-07-31 00:22:00,74.8,74.5,30.03,SSE,157,2.3,2.3,99,0.00,CLR,,0.00,WeatherDisplay:10.37,2014-07-31 04:22:00,
2014-07-31 00:27:00,74.8,74.5,30.03,SSE,157,1.2,1.2,99,0.00,CLR,,0.00,WeatherDisplay:10.37,2014-07-31 04:27:00,
2014-07-31 00:32:00,74.8,74.5,30.03,SSE,157,0.0,0.0,99,0.00,CLR,,0.00,WeatherDisplay:10.37,2014-07-31 04:32:00,
2014-07-31 00:37:00,74.8,74.5,30.03,East,90,0.0,0.0,99,0.00,CLR,,0.00,WeatherDisplay:10.37,2014-07-31 04:37:00,
2014-07-31 00:42:00,74.8,74.5,30.04,East,90,0.0,0.0,99,0.00,CLR,,0.00,WeatherDisplay:10.37,2014-07-31 04:42:00,
2014-07-31 00:47:00,74.8,74.5,30.04,NE,45,0.0,0.0,99,0.00,CLR,,0.00,WeatherDisplay:10.37,2014-07-31 04:47:00,
2014-07-31 00:52:00,74.8,74.5,30.04,NE,45,0.0,0.0,99,0.00,CLR,,0.00,WeatherDisplay:10.37,2014-07-31 04:52:00,
2014-07-31 00:57:00,74.8,74.5,30.04,NE,45,0.0,0.0,99,0.00,CLR,,0.00,WeatherDisplay:10.37,2014-07-31 04:57:00,
2014-07-31 01:02:00,74.8,74.5,30.04,NE,45,0.0,0.0,99,0.00,CLR,,0.00,WeatherDisplay:10.37,2014-07-31 05:02:00,
2014-07-31 01:07:00,74.8,74.5,30.04,NE,45,0.0,0.0,99,0.00,CLR,,0.00,WeatherDisplay:10.37,2014-07-31 05:07:00,
2014-07-31 01:12:00,74.8,74.5,30.04,NE,45,0.0,0.0,99,0.00,CLR,,0.00,WeatherDisplay:10.37,2014-07-31 05:12:00,
2014-07-31 01:17:00,74.8,74.5,30.03,NE,45,0.0,0.0,99,0.00,CLR,,0.00,WeatherDisplay:10.37,2014-07-31 05:17:00,
2014-07-31 01:22:00,74.8,74.5,30.03,NE,45,0.0,0.0,99,0.00,CLR,,0.00,WeatherDisplay:10.37,2014-07-31 05:22:00,
2014-07-31 01:27:00,74.9,74.6,30.03,NE,45,0.0,0.0,99,0.00,CLR,,0.00,WeatherDisplay:10.37,2014-07-31 05:27:00,
2014-07-31 01:32:00,74.9,74.6,30.03,NE,45,0.0,0.0,99,0.00,CLR,,0.00,WeatherDisplay:10.37,2014-07-31 05:32:00,
2014-07-31 01:37:00,74.9,74.6,30.03,NE,45,0.0,0.0,99,0.00,CLR,,0.00,WeatherDisplay:10.37,2014-07-31 05:37:00,
2014-07-31 01:42:00,75.0,74.7,30.03,NE,45,0.0,0.0,99,0.00,CLR,,0.00,WeatherDisplay:10.37,2014-07-31 05:42:00,
2014-07-31 01:47:00,75.0,74.7,30.03,NE,45,0.0,0.0,99,0.00,CLR,,0.00,WeatherDisplay:10.37,2014-07-31 05:47:00,
2014-07-31 01:52:00,75.0,74.7,30.03,NE,45,0.0,0.0,99,0.00,CLR,,0.00,WeatherDisplay:10.37,2014-07-31 05:52:00,
2014-07-31 01:57:00,74.9,74.6,30.03,NE,45,0.0,0.0,99,0.00,CLR,,0.00,WeatherDisplay:10.37,2014-07-31 05:57:00,